INTELSAT 10 (IS-10) 1 26766U 01019A 25310.21425936 -.00000151 00000+0 00000+0 0 9997 2 26766 8.5401 61.5164 0006658 205.5170 151.7805 0.99075272 43369 INTELSAT 902 (IS-902) 1 26900U 01039A 25302.31837023 -.00000270 00000+0 00000+0 0 9997 2 26900 5.5323 74.5916 0004367 140.6922 247.1466 1.00272641 88383 INTELSAT 904 (IS-904) 1 27380U 02007A 25310.18447584 -.00000215 00000+0 00000+0 0 9998 2 27380 6.3608 71.8507 0001712 119.7603 248.9946 1.00272008 49534 DIRECTV 5 (TEMPO 1) 1 27426U 02023A 25310.27027649 -.00000047 00000+0 00000+0 0 9996 2 27426 4.3058 78.0840 0003351 143.6757 171.1789 1.00271093 85881 INTELSAT 905 (IS-905) 1 27438U 02027A 25307.93785549 .00000109 00000+0 00000+0 0 9990 2 27438 6.1844 72.5026 0002825 157.8845 13.5295 1.00273936 49106 GALAXY 3C (G-3C) 1 27445U 02030A 25310.15803223 -.00000142 00000+0 00000+0 0 9998 2 27445 3.1691 80.8771 0001536 88.0740 198.7508 1.00270550 44250 INTELSAT 906 (IS-906) 1 27513U 02041A 25309.97547442 .00000024 00000+0 00000+0 0 9990 2 27513 5.2340 75.6662 0005261 177.5033 207.6072 1.00270961 84794 GALAXY 13 (HORIZONS-1) 1 27954U 03044A 25310.25534939 .00000142 00000+0 00000+0 0 9994 2 27954 0.8391 86.9258 0001935 131.5263 129.2213 1.00273382 44337 INTELSAT 10-02 1 28358U 04022A 25310.03392492 -.00000001 00000+0 00000+0 0 9997 2 28358 0.0105 51.1652 0001205 212.6911 152.9034 1.00269614 78316 XM-3 (RHYTHM) 1 28626U 05008A 25309.52054097 -.00000160 00000+0 00000+0 0 9994 2 28626 0.0770 79.7281 0003967 246.2104 195.1994 0.99473163 40383 DIRECTV 8 1 28659U 05019A 25310.26708490 .00000011 00000+0 00000+0 0 9992 2 28659 0.0143 272.5658 0003229 324.4061 145.8968 1.00271716 74839 GALAXY 28 (G-28) 1 28702U 05022A 25310.20772659 -.00000177 00000+0 00000+0 0 9991 2 28702 2.7228 81.7023 0002159 180.3023 129.7791 1.00271508 49730 GALAXY 16 (G-16) 1 29236U 06023A 25310.27155470 -.00000118 00000+0 00000+0 0 9994 2 29236 0.0278 163.7021 0002934 51.3727 189.4401 1.00272737 70737 DIRECTV 9S 1 29494U 06043A 25310.20465944 -.00000103 00000+0 00000+0 0 9999 2 29494 1.8423 83.6048 0003237 146.0105 148.5560 1.00270742 49149 GALAXY 17 (G-17) 1 31307U 07016B 25310.20872366 -.00000196 00000+0 00000+0 0 9998 2 31307 2.4046 82.7102 0006345 152.5133 160.6279 1.00271163 67566 DIRECTV 10 1 31862U 07032A 25310.20419926 -.00000092 00000+0 00000+0 0 9996 2 31862 0.0055 313.3652 0000947 298.8617 124.1875 1.00264226 43352 INTELSAT 11 (IS-11) 1 32253U 07044B 25310.18203904 -.00000013 00000+0 00000+0 0 9991 2 32253 2.9814 81.3930 0009263 147.5410 268.6848 0.99050114 66246 HORIZONS-2 1 32388U 07063B 25310.21202468 -.00000243 00000+0 00000+0 0 9994 2 32388 2.0236 83.3667 0004470 165.4089 159.4792 1.00272168 65577 DIRECTV 11 1 32729U 08013A 25310.27155470 -.00000116 00000+0 00000+0 0 9994 2 32729 0.0026 318.7442 0000097 243.1775 202.4090 1.00269200 43359 GALAXY 18 (G-18) 1 32951U 08024A 25310.26559971 .00000034 00000+0 00000+0 0 9994 2 32951 0.0168 277.3567 0003219 310.2468 150.7698 1.00272397 43614 INTELSAT 25 (IS-25) 1 33153U 08034A 25310.18447584 -.00000214 00000+0 00000+0 0 9998 2 33153 2.1301 83.0623 0005461 165.2204 192.3053 1.00269328 63454 GALAXY 19 (G-19) 1 33376U 08045A 25310.20558236 -.00000130 00000+0 00000+0 0 9994 2 33376 0.0161 272.8925 0003032 315.4437 154.3806 1.00271255 62662 FM-5 1 35493U 09034A 25310.15976558 -.00000190 00000+0 00000+0 0 9996 2 35493 0.0151 272.9430 0000265 266.0206 198.0661 1.00269342 44405 INTELSAT 14 (IS-14) 1 36097U 09064A 25310.19003353 -.00000264 00000+0 00000+0 0 9990 2 36097 0.0177 287.7615 0002888 309.0366 192.3060 1.00269850 58365 INTELSAT 15 (IS-15) 1 36106U 09067A 25310.05461373 -.00000175 00000+0 00000+0 0 9990 2 36106 0.0163 307.5927 0002575 286.7548 276.0160 1.00270516 38993 DIRECTV 12 1 36131U 09075A 25310.20419927 -.00000094 00000+0 00000+0 0 9992 2 36131 0.0106 20.6631 0000669 237.1429 118.6880 1.00271834 44310 INTELSAT 16 (IS-16) 1 36397U 10006A 25310.21103334 -.00000235 00000+0 00000+0 0 9992 2 36397 0.0126 293.3208 0002249 293.5168 178.6429 1.00270757 57410 XM-5 1 37185U 10053A 25310.01130480 -.00000013 00000+0 00000+0 0 9994 2 37185 0.0575 270.7600 0000616 236.2672 147.3613 1.00269732 55247 INTELSAT 17 (IS-17) 1 37238U 10065B 25310.11859870 .00000008 00000+0 00000+0 0 9991 2 37238 0.0115 244.9262 0002311 339.4933 289.8959 1.00269988 51012 INTELSAT 28 (IS-28) 1 37392U 11016A 25310.18447584 -.00000214 00000+0 00000+0 0 9991 2 37392 1.2265 85.4763 0004224 149.5714 205.3483 1.00271127 51044 INTELSAT 18 (IS-18) 1 37834U 11056A 25309.71304635 .00000064 00000+0 00000+0 0 9994 2 37834 0.0139 275.4142 0001933 313.1755 253.3133 1.00271061 51572 INTELSAT 22 (IS-22) 1 38098U 12011A 25310.23447572 -.00000049 00000+0 00000+0 0 9990 2 38098 0.0103 335.0022 0001749 252.4275 334.8144 1.00271492 4958 INTELSAT 19 (IS-19) 1 38356U 12030A 25310.22961479 -.00000047 00000+0 00000+0 0 9992 2 38356 0.0139 291.4445 0003331 294.8831 68.0652 1.00270484 48212 INTELSAT 20 (IS-20) 1 38740U 12043A 25308.92614064 -.00000013 00000+0 00000+0 0 9995 2 38740 0.0069 237.1830 0002580 300.5195 268.6388 1.00272115 48496 INTELSAT 21 (IS-21) 1 38749U 12045A 25310.19558569 -.00000275 00000+0 00000+0 0 9995 2 38749 0.0669 84.3357 0002901 155.7465 178.0199 1.00269998 48280 INTELSAT 23 (IS-23) 1 38867U 12057A 25308.88207850 -.00000272 00000+0 00000+0 0 9993 2 38867 0.0122 260.0566 0001991 3.6957 45.1975 1.00266376 47704 FM-6 1 39360U 13058A 25309.40391065 -.00000005 00000+0 00000+0 0 9999 2 39360 0.0316 132.0857 0002807 44.2561 257.8165 1.00269334 43827 INTELSAT 30 (IS-30) 1 40271U 14062A 25310.30439360 -.00000141 00000+0 00000+0 0 9991 2 40271 0.0174 357.9535 0001147 66.6837 355.6883 1.00270095 4549 DIRECTV 14 1 40333U 14078B 25309.13071803 -.00000114 00000+0 00000+0 0 9990 2 40333 0.0176 274.9183 0000418 272.7647 164.7874 1.00271275 39791 DIRECTV 15 1 40663U 15026A 25310.20419931 -.00000093 00000+0 00000+0 0 9994 2 40663 0.0598 92.8196 0000288 160.8212 122.7074 1.00268939 38222 SKY MEXICO-1 1 40664U 15026B 25310.14771584 -.00000225 00000+0 00000+0 0 9990 2 40664 0.0185 286.7147 0002477 310.3944 142.9462 1.00270182 38218 INTELSAT 34 (IS-34) 1 40874U 15039A 25310.19558569 -.00000276 00000+0 00000+0 0 9994 2 40874 0.0158 279.7745 0000120 292.1407 208.6895 1.00270011 37389 INTELSAT 31 (IS-31) 1 41581U 16035A 25310.20650088 -.00000141 00000+0 00000+0 0 9999 2 41581 0.0145 254.0637 0001870 332.7222 158.1927 1.00269918 34449 INTELSAT 36 (IS-36) 1 41747U 16053A 25310.11903205 -.00000014 00000+0 00000+0 0 9994 2 41747 0.0139 331.9388 0001527 3.5405 181.4617 1.00270308 33718 INTELSAT 32E (IS-32E) 1 41945U 17007B 25310.19003353 -.00000259 00000+0 00000+0 0 9998 2 41945 0.0040 58.4159 0000097 168.7885 203.7165 1.00269029 31984 INTELSAT 35E (IS-35E) 1 42818U 17041A 25310.18447584 -.00000228 00000+0 00000+0 0 9999 2 42818 0.0141 273.8303 0002565 316.4695 207.3063 1.00271535 30579 INTELSAT 37E (IS-37E) 1 42950U 17059A 25310.17336303 -.00000131 00000+0 00000+0 0 9993 2 42950 0.0185 280.0554 0003214 307.7899 222.2428 1.00271187 29823 AZERSPACE 2 (IS-38) 1 43632U 18074A 25310.27197456 .00000000 00000+0 00000+0 0 9998 2 43632 0.0141 289.3817 0001710 307.7191 311.6498 1.00272281 26217 HORIZONS-3E 1 43633U 18074B 25308.71642081 -.00000019 00000+0 00000+0 0 9995 2 43633 0.0164 229.2003 0001324 72.8406 169.1026 1.00267626 26099 AT&T T-16 1 44333U 19034A 25310.15681890 -.00000105 00000+0 00000+0 0 9998 2 44333 0.0075 63.3904 0000200 132.5152 165.3367 1.00269072 23392 INTELSAT 39 (IS-39) 1 44476U 19049B 25310.18914575 .00000043 00000+0 00000+0 0 9994 2 44476 0.0156 275.9183 0000277 259.5226 0.2790 1.00270463 22893 GALAXY 30 (G-30) 1 46114U 20056C 25310.26434828 .00000046 00000+0 00000+0 0 9995 2 46114 0.0142 278.2891 0002385 305.4221 152.2143 1.00270291 19052 GALAXY 33 (G-33) 1 54026U 22128A 25309.93647421 .00000089 00000+0 00000+0 0 9992 2 54026 0.0138 307.4712 0002035 281.3529 20.7454 1.00272586 11505 GALAXY 34 (G-34) 1 54027U 22128B 25310.26299323 .00000068 00000+0 00000+0 0 9992 2 54027 0.0162 293.3558 0001467 292.0207 146.0464 1.00272372 11678 GALAXY 31 (G-31) 1 54243U 22153A 25309.86731385 .00000023 00000+0 00000+0 0 9994 2 54243 0.0173 218.4868 0001951 25.1922 352.9311 1.00272245 4893 GALAXY 32 (G-32) 1 54244U 22153B 25309.31454144 -.00000163 00000+0 00000+0 0 9996 2 54244 0.0122 300.8523 0001739 347.4399 138.7645 1.00270718 10894 GALAXY 35 (G-35) 1 54741U 22170A 25309.58763902 -.00000151 00000+0 00000+0 0 9998 2 54741 0.0139 248.2418 0002465 346.5239 288.7807 1.00270881 10653 GALAXY 36 (G-36) 1 54742U 22170B 25310.15915891 -.00000175 00000+0 00000+0 0 9996 2 54742 0.0138 244.3864 0000935 310.7293 178.8400 1.00271155 10538 GALAXY 37 (G-37) 1 57493U 23112A 25309.93760089 .00000058 00000+0 00000+0 0 9999 2 57493 0.0160 283.5669 0002451 313.3178 19.1039 1.00273696 8302